Hawk 3A

operational
NORAD ID: 48957 Int'l Des: 2021-059 Owner: HE360 Country: US
LEOCIRCULARRETROGRADE

关于 Hawk 3A

正在加载描述...

实时位置

正在加载3D地球...

即将过境

高度历史

Altitude vs Time

uPlot chart will show altitude changes over time

两行轨道根数

1 48957U 21059CG 26062.46079124 .00046310 00000-0 55084-3 0 9998
2 48957 97.6798 252.6116 0005537 1.4257 358.7014 15.60993307261317
Epoch: Mar 3, 2026 • Age: 28 hours

当前状态

高度 386.6 km
速度 7.68 km/s
星下点 36.12°N, 23.77°E
发射日期 Jun 30, 2021
运行时间 4.6 years
类型 other

技术详情

分类 Payload
质量 31.00 kg
干质量 30.00 kg
总质量 31.00 kg
长度 0.50 m
直径 0.40 m
跨度 1.00 m
形状 Box + 2 pan
制造商 UTIAS
平台类型 Defiant
阶段状态 In Orbit
所有者/国家 HE360/US

大型星座

Loading constellations...